Regional Weather Roundup
Issued by NWS

Home | Current Version | Previous Version | Text Only | Print | Product List | Glossary Off
Versions: 1 2 3 4 5 6 7 8 9 10 11 12 13 14 15 16 17 18 19 20 21 22 23 24 25 26 27 28 29 30 31 32 33 34 35 36 37 38 39 40 41 42 43 44 45 46 47 48 49 50

031
ASUS43 KLMK 191002
RWRKY
KENTUCKY REGIONAL WEATHER ROUNDUP
NATIONAL WEATHER SERVICE LOUISVILLE KY
600 AM EDT THU OCT 19 2017

NOTE "FAIR" INDICATES FEW OR NO CLOUDS BELOW 12,000 FEET
WITH NO SIGNIFICANT WEATHER AND/OR OBSTRUCTIONS TO VISIBILITY.

KYZ001>023-026-027-061>063-070>075-191100-
WESTERN AND SOUTH CENTRAL KENTUCKY

CITY           SKY/WX    TMP DP  RH WIND       PRES   REMARKS
PADUCAH        CLEAR     55  45  68 SW3       30.20R
HENDERSON      CLEAR     48  46  93 S3        30.22R
OWENSBORO      CLEAR     48  44  86 S5        30.23R
HOPKINSVILLE   CLEAR     47  45  92 CALM      30.24R
BOWLING GREEN  CLEAR     42  41  96 CALM      30.26R
GLASGOW        CLEAR     41  41 100 CALM      30.26R
$$

KYZ024-025-028>034-038-045-046-053-191100-
NORTH CENTRAL KENTUCKY

CITY           SKY/WX    TMP DP  RH WIND       PRES   REMARKS
LOUISVILLE/SDF CLEAR     49  44  83 SE6       30.24R
LOUISVILLE/LOU CLEAR     46  44  93 S5        30.24R
FORT KNOX      CLEAR     47  42  85 S5        30.22R
$$

KYZ035>037-039>044-047>052-055>060-089>105-191100-
NORTHEAST KENTUCKY

CITY           SKY/WX    TMP DP  RH WIND       PRES   REMARKS
LEXINGTON      CLEAR     47  43  86 S9        30.25R
COVINGTON      CLEAR     47  45  93 S6        30.21S
FRANKFORT      CLEAR     44  40  85 CALM      30.23R
$$

KYZ054-064>069-076>088-106>120-191100-
SOUTHEAST KENTUCKY

CITY           SKY/WX    TMP DP  RH WIND       PRES   REMARKS
JACKSON        CLEAR     48  44  86 CALM      30.27R
LONDON         CLEAR     41  39  93 CALM      30.29R
SOMERSET       CLEAR     41  41 100 CALM      30.30R
MIDDLESBORO    FOG       40  40 100 CALM      30.31R VSB 1/4
MONTICELLO     SUNNY     37  37 100 NW8       30.30R WCI  31
$$





USA.gov is the U.S. government's official web portal to all federal, state and local government web resources and services.